| time (UTC) | temp C | wind direction | speed KPH | gust KPH | rain 1hr cm | rain 24hr cm | rain mn cm | humidity % | barometer mb |
| 20260506030005 | 15 | 233 | 4.8 | 12.9 | 0.00 | 0.38 | 0.25 | 58 | 1012.9 |
| 20260506025504 | 15 | 214 | 6.4 | 11.3 | 0.00 | 0.38 | 0.25 | 58 | 1013.0 |
| 20260506025005 | 15 | 205 | 4.8 | 12.9 | 0.00 | 0.38 | 0.25 | 59 | 1013.0 |
| 20260506024504 | 16 | 209 | 1.6 | 9.7 | 0.00 | 0.38 | 0.25 | 60 | 1012.9 |
| 20260506024005 | 16 | 200 | 0.0 | 0.0 | 0.00 | 0.38 | 0.25 | 58 | 1012.9 |
| 20260506023505 | 16 | 198 | 1.6 | 8.0 | 0.00 | 0.38 | 0.25 | 57 | 1012.7 |
| 20260506023005 | 16 | 218 | 0.0 | 8.0 | 0.00 | 0.38 | 0.25 | 57 | 1012.6 |
| 20260506022504 | 17 | 212 | 1.6 | 4.8 | 0.00 | 0.38 | 0.25 | 56 | 1012.5 |
| 20260506021504 | 17 | 144 | 0.0 | 4.8 | 0.00 | 0.38 | 0.25 | 56 | 1012.5 |
| 20260506021004 | 17 | 239 | 4.8 | 11.3 | 0.00 | 0.38 | 0.25 | 53 | 1012.4 |
| 20260506020504 | 17 | 272 | 1.6 | 11.3 | 0.00 | 0.38 | 0.25 | 50 | 1012.4 |
| 20260506020004 | 17 | 205 | 3.2 | 8.0 | 0.00 | 0.38 | 0.25 | 50 | 1012.4 |
| 20260506015504 | 18 | 240 | 3.2 | 8.0 | 0.00 | 0.38 | 0.25 | 52 | 1012.4 |
| 20260506015004 | 18 | 232 | 4.8 | 11.3 | 0.00 | 0.43 | 0.25 | 49 | 1012.4 |
| 20260506014504 | 18 | 225 | 4.8 | 9.7 | 0.00 | 0.48 | 0.25 | 48 | 1012.3 |
| 20260506013505 | 18 | 227 | 4.8 | 11.3 | 0.00 | 0.58 | 0.25 | 48 | 1012.3 |
| 20260506013004 | 18 | 225 | 3.2 | 12.9 | 0.00 | 0.58 | 0.25 | 48 | 1012.4 |
| 20260506012504 | 18 | 275 | 3.2 | 8.0 | 0.00 | 0.61 | 0.25 | 45 | 1012.3 |
| 20260506012005 | 18 | 262 | 1.6 | 9.7 | 0.00 | 0.61 | 0.25 | 47 | 1012.3 |
| 20260506011505 | 18 | 231 | 3.2 | 9.7 | 0.00 | 0.66 | 0.25 | 46 | 1012.3 |
| 20260506011004 | 18 | 267 | 1.6 | 8.0 | 0.00 | 0.71 | 0.25 | 45 | 1012.3 |
| 20260506010504 | 19 | 265 | 4.8 | 9.7 | 0.00 | 0.76 | 0.25 | 44 | 1012.1 |
| 20260506010004 | 19 | 304 | 3.2 | 9.7 | 0.00 | 0.79 | 0.25 | 42 | 1012.2 |
| 20260506005004 | 19 | 262 | 4.8 | 12.9 | 0.00 | 0.86 | 0.25 | 44 | 1012.1 |
| 20260506004504 | 18 | 295 | 0.0 | 8.0 | 0.00 | 0.86 | 0.25 | 44 | 1012.3 |
| 20260506004004 | 18 | 234 | 3.2 | 9.7 | 0.00 | 0.89 | 0.25 | 44 | 1012.3 |
| 20260506003504 | 18 | 270 | 3.2 | 9.7 | 0.00 | 0.89 | 0.25 | 45 | 1012.3 |
| 20260506002505 | 18 | 270 | 3.2 | 9.7 | 0.00 | 0.91 | 0.25 | 45 | 1012.3 |
| 20260506002004 | 18 | 281 | 3.2 | 8.0 | 0.00 | 0.91 | 0.25 | 46 | 1012.3 |
| 20260506001504 | 18 | 280 | 3.2 | 8.0 | 0.00 | 0.94 | 0.25 | 46 | 1012.3 |
| 20260506001005 | 18 | 269 | 3.2 | 11.3 | 0.00 | 0.94 | 0.25 | 48 | 1012.4 |
| 20260506000505 | 18 | 262 | 3.2 | 8.0 | 0.00 | 0.94 | 0.25 | 47 | 1012.4 |
| 20260506000004 | 18 | 297 | 3.2 | 11.3 | 0.00 | 0.94 | 0.25 | 47 | 1012.3 |
| 20260505235504 | 18 | 220 | 3.2 | 11.3 | 0.00 | 0.94 | 0.25 | 50 | 1012.3 |
| 20260505235004 | 18 | 244 | 4.8 | 11.3 | 0.00 | 0.94 | 0.25 | 48 | 1012.3 |
| 20260505234504 | 18 | 254 | 3.2 | 16.1 | 0.00 | 0.94 | 0.25 | 50 | 1012.4 |
| 20260505234004 | 18 | 271 | 3.2 | 9.7 | 0.00 | 0.94 | 0.25 | 48 | 1012.4 |
| 20260505233004 | 18 | 248 | 4.8 | 9.7 | 0.00 | 0.94 | 0.25 | 49 | 1012.4 |
| 20260505231504 | 18 | 307 | 4.8 | 12.9 | 0.00 | 0.99 | 0.25 | 50 | 1012.6 |
| 20260505230504 | 18 | 297 | 4.8 | 9.7 | 0.00 | 1.07 | 0.25 | 51 | 1012.6 |
| 20260505230004 | 18 | 271 | 4.8 | 12.9 | 0.00 | 1.12 | 0.25 | 50 | 1012.6 |
| 20260505225504 | 18 | 272 | 4.8 | 11.3 | 0.00 | 1.17 | 0.25 | 51 | 1012.7 |
| 20260505225004 | 18 | 304 | 1.6 | 9.7 | 0.00 | 1.17 | 0.25 | 52 | 1012.7 |
| 20260505224504 | 18 | 284 | 3.2 | 8.0 | 0.00 | 1.17 | 0.25 | 51 | 1012.7 |
| 20260505224004 | 18 | 190 | 3.2 | 9.7 | 0.00 | 1.17 | 0.25 | 52 | 1012.9 |
| 20260505223504 | 18 | 297 | 4.8 | 9.7 | 0.00 | 1.17 | 0.25 | 52 | 1012.9 |
| 20260505223004 | 18 | 263 | 6.4 | 11.3 | 0.00 | 1.17 | 0.25 | 53 | 1013.0 |
| 20260505222504 | 18 | 245 | 3.2 | 11.3 | 0.00 | 1.17 | 0.25 | 53 | 1013.0 |
| 20260505222004 | 18 | 256 | 8.0 | 12.9 | 0.00 | 1.17 | 0.25 | 53 | 1013.0 |
| 20260505221504 | 17 | 170 | 6.4 | 12.9 | 0.00 | 1.17 | 0.25 | 51 | 1013.0 |
| 20260505221004 | 18 | 239 | 4.8 | 9.7 | 0.00 | 1.17 | 0.25 | 53 | 1013.1 |
| 20260505220504 | 18 | 223 | 8.0 | 12.9 | 0.00 | 1.17 | 0.25 | 55 | 1013.2 |
| 20260505220005 | 18 | 253 | 4.8 | 9.7 | 0.00 | 1.17 | 0.25 | 54 | 1013.3 |
| 20260505215504 | 18 | 195 | 8.0 | 12.9 | 0.00 | 1.17 | 0.25 | 54 | 1013.3 |
| 20260505215004 | 18 | 273 | 4.8 | 11.3 | 0.00 | 1.17 | 0.25 | 55 | 1013.5 |
| 20260505214504 | 18 | 159 | 9.7 | 19.3 | 0.00 | 1.17 | 0.25 | 53 | 1013.5 |
| 20260505214005 | 17 | 208 | 4.8 | 12.9 | 0.00 | 1.17 | 0.25 | 55 | 1013.5 |
| 20260505213504 | 17 | 207 | 8.0 | 14.5 | 0.00 | 1.17 | 0.25 | 58 | 1013.6 |
| 20260505213004 | 17 | 212 | 4.8 | 12.9 | 0.00 | 1.17 | 0.25 | 58 | 1013.6 |
| 20260505212505 | 17 | 281 | 3.2 | 11.3 | 0.00 | 1.17 | 0.25 | 57 | 1013.7 |
| 20260505212005 | 17 | 223 | 4.8 | 14.5 | 0.00 | 1.17 | 0.25 | 60 | 1013.8 |
| 20260505211504 | 17 | 240 | 1.6 | 12.9 | 0.00 | 1.17 | 0.25 | 59 | 1013.8 |
| 20260505211004 | 17 | 205 | 8.0 | 16.1 | 0.00 | 1.17 | 0.25 | 62 | 1013.8 |
| 20260505210504 | 17 | 229 | 4.8 | 14.5 | 0.00 | 1.17 | 0.25 | 60 | 1013.8 |
| 20260505210004 | 17 | 235 | 9.7 | 16.1 | 0.00 | 1.17 | 0.25 | 63 | 1013.8 |
| 20260505205504 | 16 | 256 | 4.8 | 11.3 | 0.00 | 1.17 | 0.25 | 64 | 1013.8 |
| 20260505205004 | 16 | 235 | 4.8 | 11.3 | 0.00 | 1.17 | 0.25 | 63 | 1013.8 |
| 20260505204504 | 16 | 258 | 8.0 | 12.9 | 0.00 | 1.17 | 0.25 | 63 | 1013.8 |
| 20260505203504 | 15 | 252 | 8.0 | 16.1 | 0.00 | 1.17 | 0.25 | 67 | 1013.7 |
| 20260505203005 | 15 | 256 | 4.8 | 12.9 | 0.00 | 1.19 | 0.25 | 69 | 1013.7 |
| 20260505202504 | 14 | 262 | 4.8 | 11.3 | 0.00 | 1.19 | 0.25 | 70 | 1013.6 |
| 20260505202004 | 14 | 300 | 6.4 | 12.9 | 0.00 | 1.19 | 0.25 | 69 | 1013.5 |
| 20260505201004 | 14 | 249 | 4.8 | 12.9 | 0.00 | 1.19 | 0.25 | 68 | 1013.7 |
| 20260505200504 | 15 | 220 | 8.0 | 14.5 | 0.00 | 1.19 | 0.25 | 70 | 1013.7 |
| 20260505200004 | 15 | 186 | 3.2 | 14.5 | 0.00 | 1.19 | 0.25 | 69 | 1013.8 |
| 20260505195004 | 15 | 229 | 3.2 | 8.0 | 0.00 | 1.22 | 0.25 | 70 | 1013.7 |
| 20260505194504 | 14 | 250 | 4.8 | 9.7 | 0.00 | 1.24 | 0.25 | 72 | 1013.7 |
| 20260505194005 | 14 | 153 | 1.6 | 8.0 | 0.00 | 1.27 | 0.25 | 71 | 1013.7 |
| 20260505193504 | 14 | 270 | 3.2 | 11.3 | 0.00 | 1.27 | 0.25 | 72 | 1013.7 |
| 20260505193005 | 13 | 244 | 3.2 | 9.7 | 0.00 | 1.30 | 0.25 | 72 | 1013.7 |
| 20260505192504 | 13 | 189 | 9.7 | 12.9 | 0.00 | 1.30 | 0.25 | 72 | 1013.6 |
| 20260505192004 | 13 | 225 | 1.6 | 9.7 | 0.00 | 1.32 | 0.25 | 74 | 1013.6 |
| 20260505191504 | 13 | 189 | 6.4 | 12.9 | 0.00 | 1.32 | 0.25 | 74 | 1013.7 |
| 20260505191004 | 13 | 231 | 3.2 | 9.7 | 0.00 | 1.32 | 0.25 | 75 | 1013.6 |
| 20260505190505 | 13 | 209 | 3.2 | 9.7 | 0.00 | 1.32 | 0.25 | 76 | 1013.6 |
| 20260505190005 | 12 | 235 | 1.6 | 8.0 | 0.00 | 1.32 | 0.25 | 78 | 1013.6 |
| 20260505185504 | 12 | 320 | 0.0 | 8.0 | 0.00 | 1.32 | 0.25 | 77 | 1013.6 |
| 20260505185004 | 12 | 257 | 3.2 | 9.7 | 0.00 | 1.32 | 0.25 | 77 | 1013.6 |
| 20260505184504 | 12 | 286 | 3.2 | 4.8 | 0.00 | 1.32 | 0.25 | 78 | 1013.6 |
| 20260505184005 | 12 | 252 | 4.8 | 8.0 | 0.00 | 1.32 | 0.25 | 76 | 1013.6 |
| 20260505183505 | 12 | 348 | 3.2 | 8.0 | 0.00 | 1.32 | 0.25 | 77 | 1013.7 |
| 20260505183005 | 12 | 267 | 3.2 | 8.0 | 0.00 | 1.32 | 0.25 | 77 | 1013.7 |
| 20260505182504 | 12 | 276 | 1.6 | 8.0 | 0.00 | 1.32 | 0.25 | 76 | 1013.7 |
| 20260505182004 | 12 | 164 | 0.0 | 1.6 | 0.00 | 1.32 | 0.25 | 76 | 1013.6 |
| 20260505181504 | 12 | 123 | 1.6 | 8.0 | 0.00 | 1.32 | 0.25 | 81 | 1013.6 |
| 20260505181004 | 12 | 311 | 4.8 | 8.0 | 0.00 | 1.32 | 0.25 | 77 | 1013.6 |
| 20260505180504 | 12 | 256 | 3.2 | 8.0 | 0.00 | 1.32 | 0.25 | 78 | 1013.6 |
| 20260505180004 | 12 | 264 | 3.2 | 8.0 | 0.00 | 1.32 | 0.25 | 79 | 1013.6 |
| 20260505175505 | 12 | 283 | 3.2 | 8.0 | 0.00 | 1.32 | 0.25 | 78 | 1013.6 |
| 20260505175005 | 11 | 277 | 3.2 | 8.0 | 0.00 | 1.32 | 0.25 | 81 | 1013.5 |
| 20260505174504 | 11 | 339 | 3.2 | 4.8 | 0.00 | 1.32 | 0.25 | 84 | 1013.4 |
| 20260505173004 | 10 | 311 | 1.6 | 4.8 | 0.00 | 1.32 | 0.25 | 85 | 1013.3 |
| 20260505172504 | 10 | 157 | 0.0 | 0.0 | 0.00 | 1.32 | 0.25 | 85 | 1013.2 |
| 20260505172005 | 9 | 237 | 0.0 | 1.6 | 0.00 | 1.32 | 0.25 | 84 | 1013.2 |
| 20260505171504 | 9 | 193 | 0.0 | 0.0 | 0.00 | 1.32 | 0.25 | 85 | 1013.2 |
| 20260505170504 | 8 | 311 | 1.6 | 3.2 | 0.00 | 1.32 | 0.25 | 87 | 1013.2 |
| 20260505170004 | 8 | 156 | 0.0 | 4.8 | 0.00 | 1.32 | 0.25 | 86 | 1013.2 |
| 20260505165504 | 8 | 196 | 3.2 | 3.2 | 0.00 | 1.32 | 0.25 | 88 | 1013.2 |
| 20260505165005 | 8 | 239 | 1.6 | 3.2 | 0.00 | 1.32 | 0.25 | 89 | 1013.1 |
| 20260505164504 | 8 | 148 | 0.0 | 0.0 | 0.00 | 1.32 | 0.25 | 90 | 1013.1 |
| 20260505164004 | 8 | 148 | 0.0 | 1.6 | 0.00 | 1.32 | 0.25 | 90 | 1013.2 |
| 20260505163504 | 8 | 251 | 3.2 | 8.0 | 0.00 | 1.32 | 0.25 | 91 | 1013.1 |
| 20260505162505 | 8 | 185 | 1.6 | 9.7 | 0.00 | 1.32 | 0.25 | 92 | 1013.0 |
| 20260505162004 | 8 | 217 | 0.0 | 4.8 | 0.00 | 1.32 | 0.25 | 93 | 1012.9 |
| 20260505161504 | 7 | 169 | 0.0 | 3.2 | 0.00 | 1.32 | 0.25 | 93 | 1012.9 |
| 20260505161005 | 7 | 193 | 0.0 | 3.2 | 0.00 | 1.32 | 0.25 | 93 | 1013.0 |
| 20260505160505 | 7 | 263 | 3.2 | 8.0 | 0.00 | 1.32 | 0.25 | 94 | 1012.9 |
| 20260505153004 | 7 | 223 | 1.6 | 3.2 | 0.00 | 1.32 | 0.25 | 95 | 1012.6 |
| 20260505152504 | 7 | 193 | 0.0 | 4.8 | 0.00 | 1.32 | 0.25 | 95 | 1012.6 |
| 20260505152004 | 7 | 220 | 1.6 | 9.7 | 0.00 | 1.32 | 0.25 | 95 | 1012.7 |
| 20260505151504 | 7 | 206 | 3.2 | 9.7 | 0.00 | 1.32 | 0.25 | 96 | 1012.6 |
| 20260505151004 | 8 | 237 | 3.2 | 9.7 | 0.00 | 1.32 | 0.25 | 96 | 1012.5 |
| 20260505150504 | 8 | 228 | 4.8 | 9.7 | 0.00 | 1.32 | 0.25 | 96 | 1012.5 |
| 20260505140504 | 7 | 246 | 0.0 | 0.0 | 0.00 | 1.32 | 0.25 | 96 | 1012.3 |
| 20260505124504 | 7 | 246 | 0.0 | 0.0 | 0.00 | 1.32 | 0.25 | 96 | 1011.4 |
| 20260505122504 | 7 | 246 | 0.0 | 0.0 | 0.00 | 1.32 | 0.25 | 96 | 1011.3 |
| 20260505122005 | 7 | 246 | 0.0 | 0.0 | 0.00 | 1.32 | 0.25 | 96 | 1011.4 |
| 20260505121504 | 7 | 246 | 0.0 | 0.0 | 0.00 | 1.32 | 0.25 | 96 | 1011.4 |
| 20260505121004 | 7 | 246 | 0.0 | 0.0 | 0.00 | 1.32 | 0.25 | 96 | 1011.4 |
| 20260505120504 | 7 | 246 | 0.0 | 0.0 | 0.00 | 1.32 | 0.25 | 96 | 1011.4 |
| 20260505120005 | 7 | 246 | 0.0 | 0.0 | 0.00 | 1.32 | 0.25 | 96 | 1011.3 |
| 20260505115504 | 7 | 246 | 0.0 | 0.0 | 0.03 | 1.32 | 0.25 | 96 | 1011.4 |
| 20260505115005 | 7 | 246 | 0.0 | 0.0 | 0.03 | 1.32 | 0.25 | 96 | 1011.4 |
| 20260505114004 | 7 | 246 | 0.0 | 0.0 | 0.03 | 1.32 | 0.25 | 96 | 1011.3 |
| 20260505113504 | 7 | 246 | 0.0 | 0.0 | 0.03 | 1.32 | 0.25 | 96 | 1011.2 |
| 20260505113004 | 7 | 246 | 0.0 | 0.0 | 0.03 | 1.32 | 0.25 | 96 | 1011.3 |
| 20260505111504 | 7 | 246 | 0.0 | 0.0 | 0.03 | 1.32 | 0.25 | 96 | 1011.2 |
| 20260505111005 | 7 | 246 | 0.0 | 0.0 | 0.03 | 1.32 | 0.25 | 96 | 1011.2 |
| 20260505110504 | 7 | 246 | 0.0 | 0.0 | 0.03 | 1.32 | 0.25 | 96 | 1011.3 |
| 20260505102005 | 7 | 246 | 0.0 | 0.0 | 0.00 | 1.30 | 0.23 | 96 | 1011.5 |
| 20260505101504 | 7 | 246 | 0.0 | 0.0 | 0.00 | 1.30 | 0.23 | 96 | 1011.5 |
| 20260505101004 | 7 | 246 | 0.0 | 0.0 | 0.00 | 1.30 | 0.23 | 96 | 1011.7 |
| 20260505100504 | 7 | 246 | 0.0 | 0.0 | 0.00 | 1.30 | 0.23 | 96 | 1011.6 |
| 20260505100004 | 7 | 246 | 0.0 | 0.0 | 0.00 | 1.30 | 0.23 | 96 | 1011.8 |
| 20260505095504 | 7 | 246 | 0.0 | 0.0 | 0.00 | 1.30 | 0.23 | 96 | 1011.8 |
| 20260505095004 | 7 | 246 | 0.0 | 0.0 | 0.00 | 1.30 | 0.23 | 96 | 1011.7 |
| 20260505094505 | 7 | 246 | 0.0 | 0.0 | 0.00 | 1.30 | 0.23 | 96 | 1011.8 |
| 20260505094004 | 7 | 246 | 0.0 | 0.0 | 0.00 | 1.30 | 0.23 | 96 | 1011.8 |
| 20260505093504 | 7 | 246 | 0.0 | 0.0 | 0.00 | 1.30 | 0.23 | 96 | 1011.8 |
| 20260505092005 | 7 | 246 | 0.0 | 0.0 | 0.00 | 1.30 | 0.23 | 96 | 1011.8 |
| 20260505091504 | 7 | 246 | 0.0 | 0.0 | 0.00 | 1.30 | 0.23 | 96 | 1012.0 |
| 20260505090504 | 7 | 315 | 0.0 | 0.0 | 0.00 | 1.30 | 0.23 | 96 | 1012.0 |
| 20260505090005 | 7 | 315 | 0.0 | 0.0 | 0.00 | 1.30 | 0.23 | 96 | 1012.0 |
| 20260505085005 | 7 | 315 | 0.0 | 0.0 | 0.00 | 1.30 | 0.23 | 96 | 1012.0 |
| 20260505084504 | 7 | 322 | 1.6 | 3.2 | 0.00 | 1.30 | 0.23 | 96 | 1012.0 |
| 20260505084004 | 7 | 0 | 1.6 | 4.8 | 0.03 | 1.30 | 0.23 | 96 | 1012.0 |
| 20260505083504 | 7 | 62 | 0.0 | 0.0 | 0.03 | 1.30 | 0.23 | 96 | 1012.0 |
| 20260505083005 | 7 | 62 | 0.0 | 0.0 | 0.05 | 1.30 | 0.23 | 96 | 1012.1 |
| 20260505082505 | 7 | 62 | 0.0 | 3.2 | 0.10 | 1.30 | 0.23 | 96 | 1012.3 |
| 20260505081004 | 7 | 172 | 4.8 | 8.0 | 0.15 | 1.30 | 0.23 | 96 | 1012.1 |
| 20260505080504 | 6 | 151 | 4.8 | 8.0 | 0.18 | 1.30 | 0.23 | 96 | 1012.0 |
| 20260505080004 | 7 | 140 | 4.8 | 8.0 | 0.23 | 1.30 | 0.23 | 96 | 1012.0 |
| 20260505075504 | 7 | 178 | 0.0 | 0.0 | 0.25 | 1.30 | 0.23 | 96 | 1011.8 |
| 20260505075004 | 6 | 178 | 0.0 | 0.0 | 0.28 | 1.30 | 0.23 | 96 | 1012.0 |
| 20260505074504 | 7 | 178 | 0.0 | 0.0 | 0.28 | 1.30 | 0.23 | 96 | 1012.0 |
| 20260505074004 | 6 | 178 | 0.0 | 0.0 | 0.25 | 1.27 | 0.20 | 96 | 1012.1 |
| 20260505073504 | 7 | 178 | 0.0 | 0.0 | 0.25 | 1.27 | 0.20 | 96 | 1012.4 |
| 20260505073004 | 7 | 178 | 0.0 | 0.0 | 0.23 | 1.24 | 0.18 | 96 | 1012.5 |
| 20260505072504 | 7 | 178 | 0.0 | 0.0 | 0.18 | 1.19 | 0.13 | 96 | 1012.6 |
| 20260505072004 | 7 | 178 | 0.0 | 0.0 | 0.18 | 1.19 | 0.13 | 96 | 1012.6 |
| 20260505071504 | 7 | 178 | 0.0 | 1.6 | 0.15 | 1.17 | 0.10 | 96 | 1012.5 |
| 20260505071005 | 7 | 239 | 3.2 | 8.0 | 0.13 | 1.14 | 0.08 | 96 | 1012.3 |
| 20260505070005 | 7 | 224 | 4.8 | 8.0 | 0.05 | 1.07 | 0.00 | 96 | 1012.2 |
| 20260505065504 | 7 | 179 | 0.0 | 3.2 | 0.05 | 1.07 | 1.07 | 96 | 1012.2 |
| 20260505065005 | 7 | 171 | 1.6 | 1.6 | 0.05 | 1.04 | 1.04 | 96 | 1012.0 |
| 20260505064504 | 7 | 6 | 0.0 | 0.0 | 0.03 | 1.02 | 1.02 | 96 | 1011.9 |
| 20260505064004 | 7 | 6 | 0.0 | 0.0 | 0.03 | 1.02 | 1.02 | 96 | 1011.9 |
| 20260505063504 | 7 | 6 | 0.0 | 0.0 | 0.03 | 1.02 | 1.02 | 96 | 1011.8 |
| 20260505063005 | 7 | 6 | 0.0 | 0.0 | 0.03 | 1.02 | 1.02 | 96 | 1011.8 |
| 20260505062505 | 7 | 6 | 0.0 | 0.0 | 0.03 | 1.02 | 1.02 | 96 | 1011.7 |
| 20260505062004 | 7 | 6 | 0.0 | 0.0 | 0.05 | 1.02 | 1.02 | 96 | 1011.5 |
| 20260505061004 | 7 | 6 | 0.0 | 0.0 | 0.05 | 1.02 | 1.02 | 96 | 1011.5 |
| 20260505060504 | 7 | 6 | 0.0 | 0.0 | 0.05 | 1.02 | 1.02 | 96 | 1011.5 |
| 20260505060004 | 7 | 6 | 0.0 | 0.0 | 0.05 | 1.02 | 1.02 | 96 | 1011.6 |
| 20260505055505 | 7 | 6 | 0.0 | 0.0 | 0.05 | 1.02 | 1.02 | 96 | 1011.7 |
| 20260505055005 | 7 | 6 | 0.0 | 0.0 | 0.03 | 0.99 | 0.99 | 96 | 1011.8 |
| 20260505054505 | 7 | 6 | 0.0 | 0.0 | 0.03 | 0.99 | 0.99 | 95 | 1011.7 |
| 20260505054005 | 7 | 6 | 0.0 | 0.0 | 0.03 | 0.99 | 0.99 | 95 | 1011.8 |
| 20260505053504 | 7 | 6 | 0.0 | 0.0 | 0.03 | 0.99 | 0.99 | 95 | 1012.0 |
| 20260505053004 | 7 | 6 | 0.0 | 0.0 | 0.03 | 0.99 | 0.99 | 95 | 1012.0 |
| 20260505052504 | 7 | 6 | 0.0 | 0.0 | 0.03 | 0.99 | 0.99 | 95 | 1012.0 |
| 20260505052004 | 7 | 6 | 0.0 | 0.0 | 0.00 | 0.97 | 0.97 | 95 | 1011.9 |
| 20260505051504 | 7 | 6 | 0.0 | 0.0 | 0.00 | 0.97 | 0.97 | 95 | 1011.9 |
| 20260505051005 | 7 | 6 | 0.0 | 0.0 | 0.00 | 0.97 | 0.97 | 95 | 1011.9 |
| 20260505041504 | 7 | 173 | 3.2 | 8.0 | 0.00 | 0.97 | 0.97 | 95 | 1011.4 |
| 20260505041005 | 7 | 181 | 1.6 | 4.8 | 0.00 | 0.97 | 0.97 | 95 | 1011.4 |
| 20260505040505 | 7 | 167 | 0.0 | 3.2 | 0.00 | 0.97 | 0.97 | 95 | 1011.3 |
| 20260505040005 | 7 | 165 | 0.0 | 0.0 | 0.03 | 0.97 | 0.97 | 95 | 1011.2 |
| 20260505035505 | 7 | 165 | 0.0 | 4.8 | 0.03 | 0.97 | 0.97 | 95 | 1011.1 |
| 20260505035005 | 7 | 172 | 3.2 | 8.0 | 0.03 | 0.97 | 0.97 | 95 | 1011.1 |
| 20260505034505 | 7 | 25 | 0.0 | 0.0 | 0.03 | 0.97 | 0.97 | 94 | 1011.1 |
| 20260505034004 | 7 | 25 | 0.0 | 3.2 | 0.03 | 0.97 | 0.97 | 94 | 1011.1 |
| 20260505033004 | 7 | 30 | 4.8 | 9.7 | 0.03 | 0.97 | 0.97 | 94 | 1011.4 |
| 20260505032005 | 7 | 348 | 0.0 | 4.8 | 0.03 | 0.97 | 0.97 | 94 | 1011.5 |
| 20260505031505 | 7 | 345 | 4.8 | 4.8 | 0.03 | 0.97 | 0.97 | 94 | 1011.7 |
| 20260505031004 | 7 | 19 | 3.2 | 4.8 | 0.03 | 0.97 | 0.97 | 94 | 1011.9 |
| 20260505030504 | 7 | 355 | 1.6 | 4.8 | 0.03 | 0.97 | 0.97 | 94 | 1011.9 |